Regional Weather Roundup
Issued by NWS Newport/Morehead, NC

Current Version | Previous Version | Graphics & Text | Print | Product List | Glossary Off
Versions: 1 2 3 4 5 6 7 8 9 10 11 12 13 14 15 16 17 18 19 20 21 22 23 24 25 26 27 28 29 30 31 32 33 34 35 36 37 38 39 40 41 42 43 44 45 46 47 48 49 50

000
ASUS42 KMHX 200025
RWRMHX
WEATHER ROUNDUP FOR EASTERN NORTH CAROLINA
NATIONAL WEATHER SERVICE NEWPORT/MOREHEAD CITY NC
700 PM EST MON FEB 19 2018

NOTE: "FAIR" INDICATES FEW OR NO CLOUDS BELOW 12,000 FEET
WITH NO SIGNIFICANT WEATHER AND/OR OBSTRUCTIONS TO VISIBILITY

NCZ015>017-031-032-045>047-102-103-200100-
NORTH COAST

CITY           SKY/WX    TMP DP  RH WIND       PRES   REMARKS
EDENTON        CLOUDY    61  59  94 NW3       30.41R
ELIZABETH CITY CLOUDY    64  62  93 SE6       30.40R
KITTY HAWK     MOCLDY   N/A N/A N/A S3        30.41R
MANTEO         CLOUDY    60  58  94 S9        30.43R

$$

NCZ045>047-081-094-103-104-200100-
CENTRAL COAST

CITY           SKY/WX    TMP DP  RH WIND       PRES   REMARKS
FRISCO         CLOUDY    64  62  93 S9        30.43R

$$

NCZ095-097-098-100-101-200100-
SOUTHERN COAST

CITY           SKY/WX    TMP DP  RH WIND       PRES   REMARKS
BEAUFORT       FAIR      66  63  90 S9        30.41R
CEDAR ISLAND   NOT AVBL
JACKSONVILLE   CLOUDY    69  66  90 S9        30.39R
PINEY ISLAND   NOT AVBL
WILMINGTON     CLOUDY    66  65  96 CALM      30.40R


$$

NCZ011>013-027>030-043-044-078>080-089-090>093-098-200100-
COASTAL PLAIN

CITY           SKY/WX    TMP DP  RH WIND       PRES   REMARKS
AHOSKIE        CLOUDY    50  50 100 CALM      30.42R FOG
CLINTON        CLOUDY    60  58  94 CALM      30.41R
ELIZABETHTOWN  NOT AVBL
GOLDSBORO      CLOUDY    55  52  88 CALM      30.38R
GREENVILLE     RAIN      55  54  94 CALM      30.41R
HAVELOCK       CLOUDY    70  66  87 S5        30.41S
KENANSVILLE    LGT RAIN  61  61 100 CALM      30.40R VSB 1
KINSTON        CLOUDY    57  57 100 CALM      30.40S FOG
NEW BERN       CLOUDY    67  64  90 S8        30.41R
RICHLANDS      LGT RAIN  66  66 100 S6        30.41R FOG
ROCKY MOUNT    CLOUDY    52  50  93 CALM      30.41R
WASHINGTON     CLOUDY    62  58  88 CALM      30.41R FOG
WHITEVILLE     FOG       63  62  97 CALM      30.38S VSB 3/4

$$

AMZ130-135-150-152-154-156-158-170-250-252-270-ANZ085-086-088-633-658-670-200100-
MARINE OBSERVATIONS

STATION/POSITION TIME  TEMP    WIND        PRES    WAVE   SWELL
                       AIR SEA DIR/SP/G            HT/PER HT/PER
                 (UTC) (F)     (DEG/KT/KT) (MB)    (FT/S) (FT/S)
CHESAPEAKE LIGHT NOT AVBL
64 E VA BEACH    2350   54 50  180/  8/ 10 1030.7    3/ 9   3/ 9
DUCK             0000   64 44  180/ 13/ 15 1029.1
2 E DUCK         0000      45                N/A     3/ 5
OREGON INLET     0000   60 47  150/  7/ 10 1030.1
13E OREGON INLT  2348      45                N/A     4/ 6   3/ 6
HATTERAS CG      0000   63 56  160/  6/  9 1030.0
DIAMOND BUOY     0010   71 73  160/ 16/ 19 1030.8
CAPE LOOKOUT     0000          180/  6/  7 1030.0
BEAUFORT LAB     0000   61 55  180/  6/  7 1029.8
30 SE NEW RVR IN 2308   70 67  170/ 10/ 14 1029.4
30 SE NEW RVR IN 0000      67                N/A     5/ 6
27 SE WRIGHTSVLE 2308   69 67  160/ 10/ 17 1029.2
5 SE WRIGHTSVLE  0008   59 54  180/  2/  6 1029.0
225 S CAPE HAT   2350   71 72  110/ 14/ 16 1030.0    4/ 8   3/ 8
41 SE CHARLESTON 0010   70 68  120/  4/  6 1027.9

$$




USA.gov is the U.S. government's official web portal to all federal, state and local government web resources and services.